User: anonymous   Login
Location: Columbus
(29.5618°N, 96.6770°W)
Time: 14:42:57
(UTC-05:00)
Language:

Cosmos 2056 Rocket - Orbit

View from above orbital plane
View from above orbital plane
View from above satellite
View from above satellite

Ground track
Ground track

The orbit data is extracted from the following two-line orbital elements,

1 20433U 90004B   17233.19295414 -.00000013  00000-0  44153-5 0  9993
2 20433  74.0341 236.8233 0041245 348.4374  83.7432 14.35994730444531
Epoch (UTC): 21 August 2017 04:37:51
Eccentricity: 0.0041245
inclination: 74.0341°
perigee height: 742 km
apogee height: 801 km
right ascension of ascending node: 236.8233°
argument of perigee: 348.4374°
revolutions per day: 14.35994730
mean anomaly at epoch: 83.7432°
orbit number at epoch: 44453

The dashed part of the orbit path shows where the satellite is in the earth's shadow,  

DLR